Location: Newark
(12.0500°N, 61.7500°W)
Time: 14:30:54
(UTC+00:00)

LightSail 2 - Visible Passes

Search period start: 26 January 2020 00:00
Search period end: 05 February 2020 00:00
Orbit: 704 x 719 km, 24.0° (Epoch: 25 January)

Date Brightness Start Highest point End Pass type
(mag) Time Alt. Az. Time Alt. Az. Time Alt. Az.
26 Jan 6.0 23:01:34 10° NW 23:06:11 32° NNE 23:08:25 23° ENE visible
27 Jan 7.8 00:46:43 10° WNW 00:47:22 14° WNW 00:47:22 14° WNW visible
27 Jan 5.3 23:48:17 10° WNW 23:52:54 59° N 23:52:54 59° N visible
28 Jan 5.5 22:49:54 10° NW 22:54:50 46° NNE 22:58:29 17° E visible
29 Jan 7.2 00:35:20 10° WNW 00:37:28 24° W 00:37:28 24° W visible
29 Jan 5.1 23:36:44 10° WNW 23:41:54 80° SSW 23:43:08 52° SE visible
30 Jan 5.1 22:38:14 10° WNW 22:43:22 74° NNE 22:48:32 10° ESE visible
31 Jan 6.8 00:24:14 10° W 00:27:52 30° SW 00:27:52 30° SW visible
31 Jan 6.0 23:25:24 10° W 23:30:19 46° SSW 23:33:40 19° SE visible
01 Feb 5.5 22:26:43 10° WNW 22:31:48 67° SSW 22:36:55 10° ESE visible
02 Feb 7.3 00:13:42 10° WSW 00:17:12 18° SSW 00:18:30 17° S visible
02 Feb 7.0 23:14:24 10° W 23:18:41 26° SSW 23:22:58 10° SSE visible
04 Feb 7.7 23:04:09 10° WSW 23:07:02 15° SSW 23:09:56 10° S visible
